Time,TemperatureF,DewpointF,PressureIn,WindDirection,WindDirectionDegrees,WindSpeedMPH,WindSpeedGustMPH,Humidity,HourlyPrecipIn,Conditions,Clouds,dailyrainin,SolarRadiationWatts/m^2,SoftwareType,DateUTC
2013-07-03 00:00:00,61.4,55.0,29.77,WNW,300,1.0,2.0,79,0.00,,,0.00,0,weatherlink.com 1.10,2013-07-03 07:00:00,
2013-07-03 00:30:00,60.3,55.0,29.77,WNW,300,0.0,2.0,82,0.00,,,0.00,0,weatherlink.com 1.10,2013-07-03 07:30:00,
2013-07-03 00:45:00,59.8,55.0,29.77,SSW,211,1.0,2.0,83,0.00,,,0.00,0,weatherlink.com 1.10,2013-07-03 07:45:00,
2013-07-03 01:00:00,59.7,55.0,29.77,SSW,211,0.0,1.0,84,0.00,,,0.00,0,weatherlink.com 1.10,2013-07-03 08:00:00,
2013-07-03 01:30:00,59.0,55.0,29.77,SSW,211,0.0,0.0,86,0.00,,,0.00,0,weatherlink.com 1.10,2013-07-03 08:30:00,
2013-07-03 01:45:00,58.8,55.0,29.76,SSW,211,1.0,1.0,86,0.00,,,0.00,0,weatherlink.com 1.10,2013-07-03 08:45:00,
2013-07-03 02:30:00,58.0,55.0,29.76,SSW,211,1.0,1.0,88,0.00,,,0.00,0,weatherlink.com 1.10,2013-07-03 09:30:00,
2013-07-03 02:45:00,57.7,55.0,29.75,SSW,211,1.0,2.0,89,0.00,,,0.00,0,weatherlink.com 1.10,2013-07-03 09:45:00,
2013-07-03 03:00:00,58.0,55.0,29.75,South,173,1.0,2.0,88,0.00,,,0.00,0,weatherlink.com 1.10,2013-07-03 10:00:00,
2013-07-03 03:16:00,58.0,55.0,29.75,South,173,0.0,2.0,89,0.00,,,0.00,0,weatherlink.com 1.10,2013-07-03 10:16:00,
2013-07-03 03:30:00,58.0,55.0,29.75,South,173,1.0,1.0,89,0.00,,,0.00,0,weatherlink.com 1.10,2013-07-03 10:30:00,
2013-07-03 03:45:00,57.8,55.0,29.75,South,173,0.0,1.0,89,0.00,,,0.00,0,weatherlink.com 1.10,2013-07-03 10:45:00,
2013-07-03 04:00:00,57.5,54.0,29.75,South,173,1.0,1.0,89,0.00,,,0.00,0,weatherlink.com 1.10,2013-07-03 11:00:00,
2013-07-03 04:15:00,57.3,55.0,29.75,South,173,0.0,0.0,90,0.00,,,0.00,0,weatherlink.com 1.10,2013-07-03 11:15:00,
2013-07-03 04:31:00,57.1,54.0,29.75,East,99,1.0,2.0,90,0.00,,,0.00,0,weatherlink.com 1.10,2013-07-03 11:31:00,
2013-07-03 04:45:00,57.2,55.0,29.75,East,99,0.0,2.0,91,0.00,,,0.00,0,weatherlink.com 1.10,2013-07-03 11:45:00,
2013-07-03 05:01:00,57.3,55.0,29.75,East,99,0.0,1.0,91,0.00,,,0.00,0,weatherlink.com 1.10,2013-07-03 12:01:00,
2013-07-03 05:31:00,57.5,55.0,29.75,East,99,0.0,2.0,91,0.00,,,0.00,0,weatherlink.com 1.10,2013-07-03 12:31:00,
2013-07-03 05:46:00,57.5,55.0,29.75,East,99,1.0,2.0,91,0.00,,,0.00,0,weatherlink.com 1.10,2013-07-03 12:46:00,
2013-07-03 06:16:00,58.1,56.0,29.75,ESE,122,1.0,2.0,91,0.00,,,0.00,14,weatherlink.com 1.10,2013-07-03 13:16:00,
2013-07-03 06:31:00,58.6,56.0,29.75,ESE,122,0.0,1.0,90,0.00,,,0.00,25,weatherlink.com 1.10,2013-07-03 13:31:00,
2013-07-03 06:46:00,58.7,56.0,29.75,ESE,122,0.0,1.0,91,0.00,,,0.00,35,weatherlink.com 1.10,2013-07-03 13:46:00,
2013-07-03 07:01:00,59.4,57.0,29.76,ESE,122,0.0,1.0,91,0.00,,,0.00,104,weatherlink.com 1.10,2013-07-03 14:01:00,
2013-07-03 07:31:00,64.9,59.0,29.76,East,94,0.0,2.0,81,0.00,,,0.00,188,weatherlink.com 1.10,2013-07-03 14:31:00,
2013-07-03 07:46:00,67.3,60.0,29.76,NW,315,1.0,2.0,77,0.00,,,0.00,236,weatherlink.com 1.10,2013-07-03 14:46:00,
2013-07-03 08:16:00,69.8,60.0,29.77,NNW,338,2.0,3.0,70,0.00,,,0.00,329,weatherlink.com 1.10,2013-07-03 15:16:00,
2013-07-03 08:31:00,71.5,60.0,29.77,NW,317,2.0,3.0,67,0.00,,,0.00,373,weatherlink.com 1.10,2013-07-03 15:31:00,
2013-07-03 08:46:00,72.6,60.0,29.77,SW,234,2.0,4.0,65,0.00,,,0.00,425,weatherlink.com 1.10,2013-07-03 15:46:00,
2013-07-03 09:31:00,77.9,61.0,29.76,SW,232,3.0,4.0,56,0.00,,,0.00,592,weatherlink.com 1.10,2013-07-03 16:31:00,
2013-07-03 09:47:00,80.6,62.0,29.75,WNW,296,4.0,6.0,53,0.00,,,0.00,629,weatherlink.com 1.10,2013-07-03 16:47:00,
2013-07-03 10:02:00,80.8,61.0,29.75,WSW,257,2.0,6.0,52,0.00,,,0.00,230,weatherlink.com 1.10,2013-07-03 17:02:00,
2013-07-03 10:17:00,79.5,61.0,29.75,WNW,302,2.0,5.0,54,0.00,,,0.00,211,weatherlink.com 1.10,2013-07-03 17:17:00,
2013-07-03 10:32:00,80.5,62.0,29.75,NNW,347,4.0,5.0,53,0.00,,,0.00,362,weatherlink.com 1.10,2013-07-03 17:32:00,
2013-07-03 11:02:00,83.1,63.0,29.75,NW,320,2.0,5.0,50,0.00,,,0.00,858,weatherlink.com 1.10,2013-07-03 18:02:00,
2013-07-03 11:32:00,87.9,65.0,29.74,WNW,282,3.0,6.0,46,0.00,,,0.00,861,weatherlink.com 1.10,2013-07-03 18:32:00,
2013-07-03 11:47:00,90.1,65.0,29.74,WSW,247,4.0,6.0,43,0.00,,,0.00,865,weatherlink.com 1.10,2013-07-03 18:47:00,
2013-07-03 12:02:00,91.9,65.0,29.73,SW,226,3.0,6.0,41,0.00,,,0.00,856,weatherlink.com 1.10,2013-07-03 19:02:00,
2013-07-03 12:17:00,92.6,66.0,29.73,SSW,208,4.0,6.0,41,0.00,,,0.00,867,weatherlink.com 1.10,2013-07-03 19:17:00,
2013-07-03 12:32:00,94.5,66.0,29.72,NNW,345,1.0,6.0,39,0.00,,,0.00,874,weatherlink.com 1.10,2013-07-03 19:32:00,
2013-07-03 12:47:00,95.5,65.0,29.72,WNW,288,2.0,7.0,37,0.00,,,0.00,886,weatherlink.com 1.10,2013-07-03 19:47:00,
2013-07-03 13:17:00,97.6,66.0,29.72,WNW,287,7.0,9.0,35,0.00,,,0.00,788,weatherlink.com 1.10,2013-07-03 20:17:00,
2013-07-03 13:32:00,96.2,65.0,29.71,SSE,159,3.0,7.0,36,0.00,,,0.00,884,weatherlink.com 1.10,2013-07-03 20:32:00,
2013-07-03 13:47:00,96.3,65.0,29.71,WSW,242,6.0,10.0,36,0.00,,,0.00,877,weatherlink.com 1.10,2013-07-03 20:47:00,
2013-07-03 14:03:00,96.9,65.0,29.71,SW,215,4.0,11.0,35,0.00,,,0.00,831,weatherlink.com 1.10,2013-07-03 21:03:00,
2013-07-03 14:18:00,96.4,65.0,29.71,NW,306,2.0,11.0,35,0.00,,,0.00,854,weatherlink.com 1.10,2013-07-03 21:18:00,
2013-07-03 14:48:00,95.1,65.0,29.70,West,270,2.0,9.0,37,0.00,,,0.00,807,weatherlink.com 1.10,2013-07-03 21:48:00,
2013-07-03 15:03:00,94.4,64.0,29.70,WSW,257,5.0,12.0,36,0.00,,,0.00,803,weatherlink.com 1.10,2013-07-03 22:03:00,
2013-07-03 15:18:00,93.1,62.0,29.70,West,271,7.0,13.0,36,0.00,,,0.00,656,weatherlink.com 1.10,2013-07-03 22:18:00,
2013-07-03 15:33:00,92.3,62.0,29.69,West,274,6.0,11.0,37,0.00,,,0.00,738,weatherlink.com 1.10,2013-07-03 22:33:00,
2013-07-03 15:48:00,93.5,63.0,29.68,West,263,6.0,10.0,36,0.00,,,0.00,710,weatherlink.com 1.10,2013-07-03 22:48:00,
2013-07-03 16:03:00,93.2,62.0,29.68,ESE,117,3.0,10.0,35,0.00,,,0.00,622,weatherlink.com 1.10,2013-07-03 23:03:00,
2013-07-03 16:18:00,91.6,61.0,29.68,ENE,68,2.0,7.0,36,0.00,,,0.00,635,weatherlink.com 1.10,2013-07-03 23:18:00,
2013-07-03 16:33:00,92.1,62.0,29.67,South,185,2.0,8.0,36,0.00,,,0.00,601,weatherlink.com 1.10,2013-07-03 23:33:00,
2013-07-03 16:48:00,92.4,61.0,29.66,West,271,6.0,7.0,35,0.00,,,0.00,564,weatherlink.com 1.10,2013-07-03 23:48:00,
2013-07-03 17:03:00,91.4,61.0,29.66,SE,128,2.0,8.0,36,0.00,,,0.00,547,weatherlink.com 1.10,2013-07-04 00:03:00,
2013-07-03 17:18:00,91.6,62.0,29.65,WSW,252,6.0,7.0,37,0.00,,,0.00,339,weatherlink.com 1.10,2013-07-04 00:18:00,
2013-07-03 17:33:00,91.7,60.0,29.65,East,91,3.0,9.0,35,0.00,,,0.00,466,weatherlink.com 1.10,2013-07-04 00:33:00,
2013-07-03 17:48:00,88.1,60.0,29.64,NE,51,2.0,10.0,39,0.00,,,0.00,415,weatherlink.com 1.10,2013-07-04 00:48:00,
2013-07-03 18:03:00,86.9,60.0,29.64,WSW,253,6.0,11.0,40,0.00,,,0.00,401,weatherlink.com 1.10,2013-07-04 01:03:00,
2013-07-03 18:18:00,86.2,59.0,29.65,WNW,296,3.0,9.0,40,0.00,,,0.00,327,weatherlink.com 1.10,2013-07-04 01:18:00,
2013-07-03 18:48:00,86.1,60.0,29.65,SW,220,3.0,5.0,42,0.00,,,0.00,216,weatherlink.com 1.10,2013-07-04 01:48:00,
2013-07-03 19:03:00,86.2,60.0,29.65,West,267,2.0,5.0,42,0.00,,,0.00,174,weatherlink.com 1.10,2013-07-04 02:03:00,
2013-07-03 19:18:00,85.9,60.0,29.66,NW,310,4.0,5.0,42,0.00,,,0.00,153,weatherlink.com 1.10,2013-07-04 02:18:00,
2013-07-03 19:33:00,84.7,60.0,29.65,West,273,1.0,5.0,44,0.00,,,0.00,58,weatherlink.com 1.10,2013-07-04 02:33:00,
2013-07-03 19:48:00,83.1,60.0,29.66,SSW,205,1.0,5.0,45,0.00,,,0.00,25,weatherlink.com 1.10,2013-07-04 02:48:00,
2013-07-03 20:03:00,81.5,59.0,29.66,West,261,1.0,3.0,47,0.00,,,0.00,16,weatherlink.com 1.10,2013-07-04 03:03:00,
2013-07-03 20:18:00,80.2,60.0,29.66,WSW,241,1.0,3.0,50,0.00,,,0.00,9,weatherlink.com 1.10,2013-07-04 03:18:00,
2013-07-03 20:33:00,78.5,59.0,29.65,SE,136,1.0,3.0,51,0.00,,,0.00,0,weatherlink.com 1.10,2013-07-04 03:33:00,
2013-07-03 21:03:00,76.0,60.0,29.65,SE,140,0.0,3.0,57,0.00,,,0.00,0,weatherlink.com 1.10,2013-07-04 04:03:00,
2013-07-03 21:18:00,74.8,59.0,29.65,ESE,114,0.0,2.0,58,0.00,,,0.00,0,weatherlink.com 1.10,2013-07-04 04:18:00,
2013-07-03 21:33:00,73.7,59.0,29.65,ESE,114,1.0,2.0,60,0.00,,,0.00,0,weatherlink.com 1.10,2013-07-04 04:33:00,
2013-07-03 21:48:00,72.8,59.0,29.66,ESE,114,0.0,1.0,63,0.00,,,0.00,0,weatherlink.com 1.10,2013-07-04 04:48:00,
2013-07-03 22:03:00,71.9,59.0,29.67,ESE,114,0.0,2.0,64,0.00,,,0.00,0,weatherlink.com 1.10,2013-07-04 05:03:00,
2013-07-03 22:18:00,71.3,59.0,29.67,ESE,114,0.0,2.0,65,0.00,,,0.00,0,weatherlink.com 1.10,2013-07-04 05:18:00,
2013-07-03 22:33:00,70.6,59.0,29.67,ESE,114,1.0,1.0,67,0.00,,,0.00,0,weatherlink.com 1.10,2013-07-04 05:33:00,
2013-07-03 22:48:00,70.0,59.0,29.67,ESE,114,0.0,2.0,68,0.00,,,0.00,0,weatherlink.com 1.10,2013-07-04 05:48:00,
2013-07-03 23:03:00,69.5,59.0,29.67,ESE,114,1.0,2.0,69,0.00,,,0.00,0,weatherlink.com 1.10,2013-07-04 06:03:00,
2013-07-03 23:18:00,69.0,59.0,29.67,ESE,114,0.0,2.0,71,0.00,,,0.00,0,weatherlink.com 1.10,2013-07-04 06:18:00,
2013-07-03 23:33:00,68.4,59.0,29.68,ESE,114,0.0,1.0,71,0.00,,,0.00,0,weatherlink.com 1.10,2013-07-04 06:33:00,
2013-07-03 23:48:00,67.5,58.0,29.68,SSW,208,0.0,2.0,72,0.00,,,0.00,0,weatherlink.com 1.10,2013-07-04 06:48:00,